This is the latest recevied weather packets stored in our database for station/object AD4CG. If no packets are shown the sender has not sent any weather packets the latest 10 day(s).
| Time | Temp. | Humidity | Pressure | Rain* | Wind** | Luminosity | Snow |
|---|---|---|---|---|---|---|---|
| 1777747285 | 11.11° C | 100% | 1012.9 hPa | 0 mm | - | - | - |
| 1777741315 | 11.11° C | 100% | 1012.9 hPa | 0.51 mm | - | - | - |
| 1777739134 | 11.11° C | 100% | 1013.5 hPa | 0.51 mm | - | - | - |
| 1777737211 | 11.67° C | 100% | 1014.2 hPa | 0.51 mm | - | - | - |
| 1777733998 | 11.67° C | 100% | 1013.5 hPa | 1.02 mm | - | - | - |
| 1777733358 | 11.67° C | 100% | 1013.5 hPa | 1.02 mm | - | - | - |
| 1777732397 | 11.11° C | 100% | 1014.2 hPa | 0.51 mm | - | - | - |
| 1777730807 | 11.67° C | 100% | 1013.9 hPa | 0.51 mm | - | - | - |
| 1777729234 | 11.11° C | 100% | 1012.9 hPa | 0.25 mm | - | - | - |
| 1777728602 | 11.11° C | 100% | 1012.9 hPa | 0.25 mm | - | - | - |
| 1777726722 | 11.11° C | 100% | 1013.2 hPa | 0.51 mm | - | - | - |
| 1777725469 | 11.11° C | 100% | 1012.9 hPa | 0.51 mm | - | - | - |
| 1777723592 | 11.11° C | 100% | 1012.5 hPa | 0.51 mm | - | - | - |
| 1777722026 | 11.67° C | 100% | 1012.9 hPa | 0.51 mm | - | - | - |
| 1777721396 | 11.67° C | 100% | 1012.9 hPa | 0.51 mm | - | - | - |
| 1777718270 | 11.67° C | 100% | 1012.9 hPa | 0.76 mm | - | - | - |
| 1777715768 | 12.22° C | 100% | 1012.9 hPa | 0.25 mm | - | - | - |
| 1777712325 | 12.22° C | 100% | 1012.2 hPa | 0 mm | - | - | - |
| 1777712009 | 12.22° C | 100% | 1012.5 hPa | 0 mm | - | - | - |
| 1777711383 | 11.67° C | 100% | 1012.5 hPa | 0 mm | - | - | - |
| 1777711067 | 11.67° C | 100% | 1012.2 hPa | 0 mm | - | - | - |
| 1777708894 | 11.67° C | 100% | 1012.2 hPa | 0 mm | - | - | - |
| 1777708578 | 12.22° C | 100% | 1011.9 hPa | 0 mm | - | - | - |
| 1777707636 | 12.22° C | 100% | 1012.2 hPa | 0 mm | - | - | - |
| 1777707007 | 12.22° C | 100% | 1012.2 hPa | 0 mm | - | - | - |
* Rain latest hour (hover to see other rain measurements)
** Current wind speed in m/s (hover to see current wind gust speed)